Location: *
(46.3500°N, 10.9000°E)
Time: 10:54:43
(UTC+00:00)

Vanguard 2 - Pass Details

Date: 06 December 2021
Orbit: 553 x 2936 km, 32.9° (Epoch: 19 January)

Event Time Altitude Azimuth Distance (km) Brightness Sun altitude
Rises 16:43:57 0° 254° (WSW) 3,695 13.1 -12.2°
Reaches altitude 10° 16:47:24 10° 233° (SW) 3,099 11.9 -12.8°
Maximum altitude 16:51:59 17° 197° (SSW) 3,087 11.1 -13.5°
Drops below altitude 10° 16:57:52 10° 163° (SSE) 4,161 11.3 -14.5°
Sets 17:03:48 0° 147° (SSE) 5,686 11.8 -15.5°
